Home > Weather > Pago Pago > Past weeks

Flag for American Samoa Past Weather in Pago Pago, American Samoa — Yesterday and Last 2 Weeks

Now
83 °F

Broken clouds.


Feels Like: 91 °F
Forecast: 79 / 83 °F
Wind: 21 mph from Southeast

Location: Pago Pago / Int. Airp.

Current Time: Jul 28, 2016 at 1:18:38 PM

Latest Report: Jul 28, 2016 at 12:51 PM


Visibility: 12 mi

Pressure: 29.85 "Hg

Humidity: 77%

Dew Point: 75 °F

Location of Pago PagoLocation

Past Weather in Pago Pago — Graph

°F

Pago Pago Temperature Yesterday

Maximum temperature yesterday: 84 °F (at 11:50 AM)
Minimum temperature yesterday: 78 °F (at 4:54 AM)
Average temperature yesterday: 80 °F

High & Low Weather Summary for the Past Weeks

 TemperatureHumidityPressure
High85 °F (Jul 24, 11:51 AM)100% (Jul 18, 11:53 PM)30.02 "Hg (Jul 18, 11:53 PM)
Low70 °F (Jul 17, 3:52 AM)60% (Jul 16, 12:50 PM)29.83 "Hg (Jul 22, 3:51 PM)
Average79 °F83%29.91 "Hg
* Reported Jul 13 9:50 AM — Jul 28 9:52 AM, Pago Pago, Weather by CustomWeather, © 2016

Note: Actual official high and low records may vary slightly from our data, if they occured in-between our weather recording intervals... More about our weather records

Advertising

Pago Pago Weather History for the Previous 24 Hours

Scroll right to see more
 ConditionsComfort  
Time TempWeatherWind HumidityBarometerVisibility
9:52 AM
Thu, Jul 28
81 °FBroken clouds.20 mph84%29.91 "Hg12 mi
8:54 AM82 °FBroken clouds.16 mph82%29.91 "Hg12 mi
7:51 AM80 °FBroken clouds.20 mph84%29.88 "Hg12 mi
6:50 AM80 °FCloudy.18 mph86%29.86 "Hg11 mi
5:55 AM81 °FMostly cloudy.17 mph84%29.85 "Hg10 mi
4:56 AM80 °FPartly cloudy.16 mph85%29.84 "Hg10 mi
3:53 AM79 °FMostly cloudy.18 mph85%29.83 "Hg10 mi
2:53 AM79 °FMostly cloudy.17 mph85%29.84 "Hg10 mi
1:50 AM79 °FPartly cloudy.20 mph86%29.85 "Hg10 mi
12:53 AM80 °FPartly cloudy.15 mph84%29.86 "Hg10 mi
11:53 PM
Wed, Jul 27
80 °FPartly cloudy.15 mph82%29.88 "Hg10 mi
10:56 PM80 °FPartly cloudy.18 mph80%29.89 "Hg10 mi
9:53 PM80 °FPartly cloudy.22 mph80%29.90 "Hg10 mi
8:51 PM80 °FPartly cloudy.21 mph81%29.90 "Hg10 mi
8:00 PM80 °FPartly cloudy.18 mph81%29.88 "Hg10 mi
7:53 PM80 °FPartly cloudy.18 mph81%29.88 "Hg10 mi
6:50 PM79 °FPassing clouds.17 mph78%29.86 "Hg10 mi
5:51 PM80 °FScattered clouds.20 mph76%29.85 "Hg12 mi
4:50 PM80 °FScattered clouds.18 mph78%29.84 "Hg12 mi
3:52 PM82 °FScattered clouds.18 mph74%29.83 "Hg12 mi
2:50 PM83 °FScattered clouds.16 mph78%29.83 "Hg12 mi
1:51 PM83 °FScattered clouds.20 mph78%29.86 "Hg12 mi
Weather by CustomWeather, © 2016

See weather overviewHow to use our weather pages